Tracking 29892 objects as of 21-Nov-2024
HD Live streaming from Space Station
objects crossing your sky now

MOLNIYA 1-63

Track MOLNIYA 1-63 now!
MOLNIYA 1-63 is classified as:


NORAD ID: 15429
Int'l Code: 1984-124A
Perigee: 1,265.6 km
Apogee: 39,136.5 km
Inclination: 63.5 °
Period: 718.5 minutes
Semi major axis: 26572 km
RCS: 15.7385 m2 (large)
Launch date: December 14, 1984
Source: Commonwealth of Independent States (former USSR) (CIS)
Launch site: PLESETSK MISSILE AND SPACE COMPLEX (PKMTR)
Your satellite tracking list
Your tracking list is empty




NASA's NSSDC Master Catalog

Two Line Element Set (TLE):
1 15429U 84124A   24324.25709469 -.00001198  00000-0  00000-0 0  9997
2 15429  63.4799  70.0925 7126071 256.2178  16.7106  2.00430798292523
Source of the keplerian elements: AFSPC